Content
SEND FEEDBACK

Daily
Averages
Monthly
Summary
Fiji

LAUTHALA BAY, FIJI


Home > Oceania > Fiji
Elevation: 30 feet     Latitude: 18 01N     Longitude: 178 27E

WEATHER
 
SELECT A DAY
Number of Records: 153,661;   Date Range: 1/30/98 - 11/24/14
 
SHARE

PRINT THIS DATA

[ ← Previous Day ]
WEATHER ALMANAC - JANUARY 23, 2013
[ Next Day → ]
[ °C ]   °F
Weather ElementAverageHighLow
Temperature79.5 °F86 °F (11:00 am)71.6 °F (6:00 am)
Dewpoint73.4 °F75.2 °F (8:00 am)71 °F (6:00 am)
Humidity81.5 %100 % (1:00 am)60 % (12:00 pm)
Barometer29.83 in29.86 in (12:00 am)29.77 in (4:00 pm)
Wind Speed2.8 mph13.8 mph (11:00 am)
Weather ElementAverage
Visibility28.7 mi
Wind DirectionNE (46.3 °)

Weather ElementTotal
Precipitation---
Cooling Degree Days13.8 (Base 65)
Growing Degree Days28.8 (Base 50)
Averaged from 31 records on January 23, 2013
WEATHER CONDITIONS BREAKOUT
WIND DIRECTION BREAKOUT
WEATHER BY HOUR - JANUARY 23, 2013
[ °C ]   °F
Local TimeTemperatureDewpointHumidityBarometerVisibilityWind DirectionWind SpeedGust SpeedPrecipitationEventsConditions
12:00 AM73.4 °F71.6 °F94 %29.86 in24.9 miCalmScattered Clouds
1:00 AM73.4 °F73.4 °F100 %29.86 in12.4 miWSW (240°)5.8 mphRainRain
2:00 AM75.2 °F73.4 °F94 %29.83 in24.9 miCalmScattered Clouds
3:00 AM74.0 °F73.0 °F94 %29.82 in12.0 miCalmPartly Cloudy
3:00 AM73.4 °F73.4 °F100 %29.80 in24.9 miCalmScattered Clouds
4:00 AM73.4 °F73.4 °F100 %29.80 in24.9 miCalmScattered Clouds
5:00 AM73.4 °F73.4 °F100 %29.80 in24.9 miCalmScattered Clouds
6:00 AM71.6 °F71.6 °F100 %29.83 in31.1 miCalmScattered Clouds
6:00 AM72.0 °F71.0 °F97 %29.84 in31.0 miCalmPartly Cloudy
7:00 AM77.0 °F73.4 °F89 %29.83 in31.1 miCalmScattered Clouds
8:00 AM78.8 °F75.2 °F89 %29.86 in31.1 miCalmScattered Clouds
9:00 AM83.0 °F74.0 °F68 %29.86 in31.0 miEast (90°)4.6 mphPartly Cloudy
9:00 AM82.4 °F73.4 °F74 %29.86 in31.1 miEast (90°)4.6 mphScattered Clouds
10:00 AM84.2 °F73.4 °F70 %29.86 in31.1 miEast (90°)9.2 mphMostly Cloudy
11:00 AM86.0 °F71.6 °F62 %29.83 in31.1 miEast (90°)13.8 mphMostly Cloudy
12:00 PM84.2 °F71.6 °F66 %29.83 in31.1 miEast (100°)10.4 mphMostly Cloudy
12:00 PM84.0 °F72.0 °F60 %29.83 in31.0 miEast (100°)10.4 mphPartly Cloudy
1:00 PM84.2 °F73.4 °F70 %29.80 in31.1 miEast (90°)5.8 mphMostly Cloudy
2:00 PM84.2 °F73.4 °F70 %29.80 in31.1 miEast (90°)5.8 mphMostly Cloudy
3:00 PM84.0 °F73.0 °F63 %29.81 in31.0 miEast (90°)5.8 mphPartly Cloudy
3:00 PM84.2 °F73.4 °F70 %29.80 in31.1 miEast (90°)5.8 mphScattered Clouds
4:00 PM84.2 °F73.4 °F70 %29.77 in31.1 miEast (90°)5.8 mphScattered Clouds
5:00 PM82.4 °F75.2 °F79 %29.77 in31.1 miCalmMostly Cloudy
6:00 PM82.4 °F75.2 °F79 %29.80 in31.1 miCalmMostly Cloudy
6:00 PM82.0 °F73.0 °F68 %29.81 in31.0 miCalmPartly Cloudy
7:00 PM80.6 °F75.2 °F84 %29.80 in31.1 miCalmMostly Cloudy
8:00 PM80.6 °F75.2 °F84 %29.83 in31.1 miCalmMostly Cloudy
9:00 PM79.0 °F74.0 °F79 %29.86 in31.0 miCalmPartly Cloudy
9:00 PM78.8 °F73.4 °F83 %29.86 in31.1 miCalmMostly Cloudy
10:00 PM78.8 °F75.2 °F89 %29.86 in31.1 miCalmMostly Cloudy
11:00 PM78.8 °F73.4 °F83 %29.86 in24.9 miCalmScattered Clouds
Hourly data recorded from NFNA, located miles away from Lauthala Bay, Fiji







STORIES FROM OUR PARTNERS